Powrót do katalogu

STARLINK-35789

AktywnyŁącznośćVLEO
NORAD 67113·PAYLOAD·🇺🇸 United States

Wystrzelony Dec 15, 2025 z Cape Canaveral Space Force Station

Loading…

Następne Przeloty (najbliższe 24 godziny)

TLE

ŚwieżeSource: CelesTrak SupGP

Epoka: Sep 14, 2026, 22:36 UTC

1 67113C 25299M   26257.94215278 -.00027227  00000+0 -98606-3 0  2575
2 67113  43.0028 180.3744 0001348 265.4652 247.4578 15.27595050    17

Śledź STARLINK-35789 w czasie rzeczywistym z AllMySat

Download on the App Store